When you browse on this site, cookies collect data to enhance your experience and personalize the content and advertising you see.
Visit our Privacy Policy to learn more. By continuing to use the site, you agree to this use of cookies and data.
  • En España
  • Lista de países
  • Para 7 días
  • Temperatura del agua
  • Mapa Satelital
  • El tiempo en el mapa
  • Informadores
  • user-avatar
    Iniciar sesión

    Tiempo cada hora Giumri

    Hoy, 21 Noviembre, Miércoles

    Tiempo Temperatura Precipitaciones Viento Presión Humedad
    00:00 +2°C° 0 mm 2 mps 632 mmHg 82%
    01:00 +2°C° 0 mm 2 mps 632 mmHg 83%
    02:00 +2°C° 0 mm 2 mps 632 mmHg 83%
    03:00 +2°C° 0 mm 3 mps 632 mmHg 83%
    04:00 +2°C° 0 mm 3 mps 632 mmHg 85%
    05:00 +3°C° 0 mm 2 mps 631 mmHg 86%
    06:00 +2°C° 0 mm 2 mps 631 mmHg 88%
    07:00 +3°C° 0 mm 2 mps 631 mmHg 85%
    08:00 +4°C° 0 mm 2 mps 631 mmHg 83%
    09:00 +3°C° 0 mm 3 mps 631 mmHg 79%
    10:00 +4°C° 0 mm 3 mps 631 mmHg 77%
    11:00 +5°C° 0 mm 3 mps 631 mmHg 74%
    12:00 +7°C° 0 mm 3 mps 631 mmHg 71%
    13:00 +7°C° 0.1 mm 3 mps 631 mmHg 71%
    14:00 +7°C° 0.1 mm 3 mps 630 mmHg 71%
    15:00 +7°C° 0.1 mm 3 mps 630 mmHg 70%
    16:00 +6°C° 0.1 mm 2 mps 630 mmHg 74%
    17:00 +5°C° 0.1 mm 2 mps 630 mmHg 77%
    18:00 +5°C° 0.1 mm 1 mps 630 mmHg 81%
    19:00 +5°C° 0.2 mm 1 mps 630 mmHg 82%
    20:00 +5°C° 0.2 mm 1 mps 630 mmHg 83%
    21:00 +5°C° 0.2 mm 1 mps 630 mmHg 83%
    22:00 +5°C° 0.3 mm 1 mps 629 mmHg 84%
    23:00 +4°C° 0.3 mm 1 mps 629 mmHg 85%

    Mañana, 22 Noviembre, Jueves

    Tiempo Temperatura Precipitaciones Viento Presión Humedad
    00:00 +4°C° 0.3 mm 1 mps 629 mmHg 86%
    01:00 +4°C° 0.3 mm 1 mps 629 mmHg 86%
    02:00 +4°C° 0.3 mm 1 mps 629 mmHg 87%
    03:00 +4°C° 0.3 mm 1 mps 629 mmHg 88%
    04:00 +4°C° 0.4 mm 1 mps 629 mmHg 88%
    05:00 +4°C° 0.4 mm 1 mps 629 mmHg 89%
    06:00 +3°C° 0.4 mm 2 mps 628 mmHg 90%
    07:00 +3°C° 0.5 mm 2 mps 629 mmHg 89%
    08:00 +4°C° 0.5 mm 2 mps 629 mmHg 88%
    09:00 +4°C° 0.5 mm 2 mps 629 mmHg 87%
    10:00 +5°C° 0.4 mm 2 mps 629 mmHg 85%
    11:00 +4°C° 0.4 mm 3 mps 629 mmHg 84%
    12:00 +5°C° 0.4 mm 3 mps 629 mmHg 82%
    13:00 +5°C° 0.3 mm 3 mps 628 mmHg 82%
    14:00 +5°C° 0.3 mm 3 mps 628 mmHg 82%
    15:00 +6°C° 0.3 mm 2 mps 628 mmHg 81%
    16:00 +6°C° 0.4 mm 2 mps 628 mmHg 83%
    17:00 +5°C° 0.4 mm 2 mps 628 mmHg 86%
    18:00 +4°C° 0.4 mm 2 mps 629 mmHg 88%
    19:00 +5°C° 0.6 mm 1 mps 629 mmHg 88%
    20:00 +5°C° 0.6 mm 1 mps 629 mmHg 89%
    21:00 +5°C° 0.6 mm 1 mps 629 mmHg 89%
    22:00 +5°C° 0.4 mm 1 mps 629 mmHg 89%
    23:00 +5°C° 0.4 mm 1 mps 629 mmHg 90%

    Pasado mañana, 23 Noviembre, Viernes

    Tiempo Temperatura Precipitaciones Viento Presión Humedad
    00:00 +5°C° 0.4 mm 1 mps 629 mmHg 90%
    01:00 +5°C° 0.3 mm 1 mps 629 mmHg 91%
    02:00 +4°C° 0.3 mm 1 mps 629 mmHg 91%
    03:00 +4°C° 0.3 mm 1 mps 630 mmHg 91%
    04:00 +4°C° 0.3 mm 1 mps 630 mmHg 92%
    05:00 +4°C° 0.3 mm 1 mps 630 mmHg 92%
    06:00 +4°C° 0.3 mm 1 mps 630 mmHg 93%
    07:00 +4°C° 0.3 mm 1 mps 630 mmHg 91%
    08:00 +5°C° 0.3 mm 1 mps 631 mmHg 89%
    09:00 +5°C° 0.3 mm 1 mps 631 mmHg 87%
    10:00 +6°C° 0.3 mm 1 mps 631 mmHg 85%
    11:00 +5°C° 0.3 mm 2 mps 631 mmHg 82%
    12:00 +6°C° 0.3 mm 2 mps 632 mmHg 80%
    13:00 +6°C° 0.3 mm 2 mps 632 mmHg 79%
    14:00 +6°C° 0.3 mm 2 mps 632 mmHg 78%
    15:00 +6°C° 0.3 mm 2 mps 632 mmHg 77%
    16:00 +6°C° 0.2 mm 1 mps 632 mmHg 79%
    17:00 +6°C° 0.2 mm 1 mps 632 mmHg 82%
    18:00 +5°C° 0.2 mm 1 mps 632 mmHg 85%
    19:00 +4°C° 0.1 mm 1 mps 633 mmHg 85%
    20:00 +4°C° 0.1 mm 1 mps 633 mmHg 86%
    21:00 +3°C° 0.1 mm 1 mps 633 mmHg 87%
    22:00 +3°C° 0 mm 1 mps 634 mmHg 87%
    23:00 +1°C° 0 mm 2 mps 634 mmHg 88%

    24 Noviembre, Sábado

    Tiempo Temperatura Precipitaciones Viento Presión Humedad
    00:00 +1°C° 0 mm 2 mps 634 mmHg 88%
    01:00 +1°C° 0 mm 2 mps 634 mmHg 88%
    02:00 +1°C° 0 mm 2 mps 634 mmHg 88%
    03:00 -1°C° 0 mm 2 mps 635 mmHg 88%
    04:00 -1°C° 0 mm 2 mps 635 mmHg 89%
    05:00 -1°C° 0 mm 2 mps 635 mmHg 89%
    06:00 -1°C° 0 mm 2 mps 635 mmHg 90%
    07:00 -1°C° 0 mm 2 mps 636 mmHg 88%
    08:00 +1°C° 0 mm 2 mps 636 mmHg 86%
    09:00 +1°C° 0 mm 2 mps 637 mmHg 84%
    10:00 +2°C° 0 mm 2 mps 637 mmHg 82%
    11:00 +3°C° 0 mm 2 mps 637 mmHg 80%
    12:00 +4°C° 0 mm 2 mps 637 mmHg 78%
    13:00 +3°C° 0 mm 3 mps 637 mmHg 78%
    14:00 +3°C° 0 mm 3 mps 637 mmHg 78%
    15:00 +3°C° 0 mm 3 mps 637 mmHg 78%
    16:00 +2°C° 0.1 mm 3 mps 637 mmHg 81%
    17:00 +2°C° 0.1 mm 2 mps 637 mmHg 84%
    18:00 +1°C° 0.1 mm 2 mps 637 mmHg 87%
    19:00 +1°C° 0.1 mm 2 mps 637 mmHg 88%
    20:00 +1°C° 0.1 mm 2 mps 637 mmHg 89%
    21:00 -1°C° 0.1 mm 2 mps 637 mmHg 90%
    22:00 -1°C° 0 mm 2 mps 637 mmHg 91%
    23:00 +1°C° 0 mm 1 mps 637 mmHg 91%

    25 Noviembre, Domingo

    Tiempo Temperatura Precipitaciones Viento Presión Humedad
    00:00 +1°C° 0 mm 1 mps 637 mmHg 91%
    01:00 +1°C° 0 mm 1 mps 636 mmHg 91%
    02:00 +1°C° 0 mm 1 mps 636 mmHg 92%
    03:00 +1°C° 0 mm 1 mps 636 mmHg 92%
    04:00 0°C° 0 mm 1 mps 635 mmHg 92%
    05:00 0°C° 0 mm 1 mps 635 mmHg 91%
    06:00 0°C° 0 mm 1 mps 634 mmHg 91%
    07:00 +1°C° 0 mm 1 mps 634 mmHg 88%
    08:00 +2°C° 0 mm 1 mps 634 mmHg 85%
    09:00 +2°C° 0 mm 1 mps 634 mmHg 82%
    10:00 +4°C° 0 mm 1 mps 634 mmHg 79%
    11:00 +5°C° 0 mm 1 mps 633 mmHg 75%
    12:00 +6°C° 0 mm 1 mps 633 mmHg 72%
    13:00 +6°C° 0 mm 1 mps 632 mmHg 71%
    14:00 +6°C° 0 mm 1 mps 632 mmHg 70%
    15:00 +6°C° 0 mm 1 mps 631 mmHg 70%
    16:00 +5°C° 0 mm 1 mps 631 mmHg 73%
    17:00 +3°C° 0 mm 1 mps 631 mmHg 76%
    18:00 +2°C° 0 mm 1 mps 630 mmHg 79%
    19:00 +2°C° 0 mm 1 mps 630 mmHg 79%
    20:00 +2°C° 0 mm 1 mps 630 mmHg 79%
    21:00 +1°C° 0 mm 1 mps 630 mmHg 80%
    22:00 +1°C° 0 mm 1 mps 630 mmHg 80%
    23:00 +1°C° 0 mm 1 mps 630 mmHg 80%

    26 Noviembre, Lunes

    Tiempo Temperatura Precipitaciones Viento Presión Humedad
    00:00 +1°C° 0 mm 1 mps 630 mmHg 81%
    01:00 +1°C° 0 mm 1 mps 630 mmHg 82%
    02:00 +1°C° 0 mm 1 mps 630 mmHg 82%
    03:00 +1°C° 0 mm 1 mps 630 mmHg 83%
    04:00 +2°C° 0.2 mm 1 mps 630 mmHg 84%
    05:00 +2°C° 0.2 mm 1 mps 630 mmHg 85%
    06:00 +2°C° 0.2 mm 1 mps 630 mmHg 86%
    07:00 +2°C° 0.1 mm 1 mps 631 mmHg 85%
    08:00 +3°C° 0.1 mm 1 mps 631 mmHg 83%
    09:00 +3°C° 0.1 mm 1 mps 631 mmHg 81%
    10:00 +4°C° 0.1 mm 1 mps 631 mmHg 79%
    11:00 +4°C° 0.1 mm 2 mps 631 mmHg 76%
    12:00 +5°C° 0.1 mm 2 mps 631 mmHg 73%
    13:00 +5°C° 0 mm 2 mps 631 mmHg 72%
    14:00 +5°C° 0 mm 2 mps 630 mmHg 71%
    15:00 +5°C° 0 mm 2 mps 630 mmHg 69%
    16:00 +4°C° 0 mm 2 mps 630 mmHg 73%
    17:00 +3°C° 0 mm 2 mps 630 mmHg 76%
    18:00 +3°C° 0 mm 1 mps 631 mmHg 79%
    19:00 +2°C° 0 mm 1 mps 631 mmHg 81%
    20:00 +2°C° 0 mm 1 mps 631 mmHg 82%
    21:00 +1°C° 0 mm 1 mps 631 mmHg 83%
    22:00 -1°C° 0 mm 2 mps 631 mmHg 84%
    23:00 -1°C° 0 mm 2 mps 631 mmHg 85%
    Mostrar más